TimeEST,TemperatureF,Dew PointF,Humidity,Sea Level PressureIn,VisibilityMPH,Wind Direction,Wind SpeedMPH,Gust SpeedMPH,PrecipitationIn,Events,Conditions,WindDirDegrees,DateUTC
12:15 AM,26.2,23.0,88,30.27,10.0,Calm,Calm,-,N/A,,Mostly Cloudy,0,2013-12-26 05:15:00
12:35 AM,27.5,24.6,89,30.26,10.0,Calm,Calm,-,N/A,,Overcast,0,2013-12-26 05:35:00
12:55 AM,28.4,24.3,84,30.25,10.0,Calm,Calm,-,N/A,,Overcast,0,2013-12-26 05:55:00
1:15 AM,29.1,24.8,84,30.24,10.0,Calm,Calm,-,N/A,,Overcast,0,2013-12-26 06:15:00
1:35 AM,29.8,25.2,83,30.24,10.0,Calm,Calm,-,N/A,,Overcast,0,2013-12-26 06:35:00
1:55 AM,30.2,25.3,82,30.23,10.0,Calm,Calm,-,N/A,,Overcast,0,2013-12-26 06:55:00
2:15 AM,30.2,25.2,82,30.23,10.0,Calm,Calm,-,N/A,,Overcast,0,2013-12-26 07:15:00
2:35 AM,30.7,25.5,81,30.23,10.0,Calm,Calm,-,N/A,,Overcast,0,2013-12-26 07:35:00
2:55 AM,30.7,24.8,79,30.23,10.0,Calm,Calm,-,N/A,,Overcast,0,2013-12-26 07:55:00
3:15 AM,30.7,25.7,82,30.22,10.0,Calm,Calm,-,N/A,,Overcast,0,2013-12-26 08:15:00
3:35 AM,30.9,25.7,81,30.21,10.0,Calm,Calm,-,N/A,,Mostly Cloudy,0,2013-12-26 08:35:00
3:55 AM,30.9,25.7,81,30.21,10.0,Calm,Calm,-,N/A,,Mostly Cloudy,0,2013-12-26 08:55:00
4:15 AM,31.3,25.3,79,30.20,10.0,Calm,Calm,-,N/A,,Overcast,0,2013-12-26 09:15:00
4:35 AM,31.5,25.9,80,30.20,10.0,Calm,Calm,-,N/A,,Overcast,0,2013-12-26 09:35:00
4:55 AM,31.5,26.2,81,30.19,10.0,Calm,Calm,-,N/A,,Overcast,0,2013-12-26 09:55:00
5:15 AM,31.6,26.4,81,30.19,10.0,Calm,Calm,-,N/A,,Overcast,0,2013-12-26 10:15:00
5:35 AM,31.8,25.9,79,30.19,10.0,Calm,Calm,-,N/A,,Overcast,0,2013-12-26 10:35:00
5:55 AM,31.8,27.0,82,30.19,10.0,Calm,Calm,-,N/A,,Overcast,0,2013-12-26 10:55:00
6:15 AM,32.0,25.0,75,30.19,10.0,Calm,Calm,-,N/A,,Overcast,0,2013-12-26 11:15:00
6:35 AM,31.8,26.2,80,30.20,10.0,Calm,Calm,-,N/A,,Mostly Cloudy,0,2013-12-26 11:35:00
6:55 AM,31.6,25.9,79,30.19,10.0,Calm,Calm,-,N/A,,Mostly Cloudy,0,2013-12-26 11:55:00
7:15 AM,31.5,25.7,79,30.19,10.0,Calm,Calm,-,N/A,,Scattered Clouds,0,2013-12-26 12:15:00
7:35 AM,30.4,25.5,82,30.19,10.0,Calm,Calm,-,N/A,,Scattered Clouds,0,2013-12-26 12:35:00
7:55 AM,29.1,24.8,84,30.19,10.0,Calm,Calm,-,N/A,,Scattered Clouds,0,2013-12-26 12:55:00
8:15 AM,29.1,25.0,85,30.20,10.0,Calm,Calm,-,N/A,,Clear,0,2013-12-26 13:15:00
8:35 AM,31.8,26.2,80,30.19,10.0,Calm,Calm,-,N/A,,Clear,0,2013-12-26 13:35:00
8:55 AM,33.8,24.8,70,30.20,10.0,Calm,Calm,-,N/A,,Scattered Clouds,0,2013-12-26 13:55:00
9:15 AM,33.8,25.3,71,30.20,10.0,Calm,Calm,-,N/A,,Mostly Cloudy,0,2013-12-26 14:15:00
9:35 AM,34.7,27.0,73,30.21,10.0,Calm,Calm,-,N/A,,Overcast,0,2013-12-26 14:35:00
9:55 AM,41.4,28.2,60,30.22,10.0,West,11.5,-,N/A,,Overcast,280,2013-12-26 14:55:00
10:15 AM,42.8,27.1,54,30.23,10.0,West,18.4,33.4,N/A,,Overcast,280,2013-12-26 15:15:00
10:35 AM,43.3,26.1,51,30.23,10.0,West,18.4,24.2,N/A,,Overcast,270,2013-12-26 15:35:00
10:55 AM,43.9,26.2,50,30.24,10.0,WNW,12.7,17.3,N/A,,Overcast,290,2013-12-26 15:55:00
11:15 AM,42.8,27.1,54,30.24,10.0,West,12.7,16.1,N/A,,Overcast,280,2013-12-26 16:15:00
11:35 AM,43.0,27.0,53,30.24,10.0,West,15.0,27.6,N/A,,Overcast,270,2013-12-26 16:35:00
11:55 AM,42.8,26.1,52,30.24,10.0,WSW,19.6,34.5,N/A,,Overcast,250,2013-12-26 16:55:00
12:15 PM,43.0,25.2,49,30.24,10.0,WSW,18.4,29.9,N/A,,Overcast,250,2013-12-26 17:15:00
12:35 PM,42.8,25.2,50,30.24,10.0,WSW,12.7,23.0,N/A,,Overcast,240,2013-12-26 17:35:00
12:55 PM,42.3,24.8,50,30.24,10.0,West,12.7,24.2,N/A,,Overcast,280,2013-12-26 17:55:00
1:15 PM,42.4,23.5,47,30.24,10.0,West,10.4,20.7,N/A,,Mostly Cloudy,260,2013-12-26 18:15:00
1:35 PM,43.9,24.3,46,30.24,10.0,SW,4.6,17.3,N/A,,Scattered Clouds,230,2013-12-26 18:35:00
1:55 PM,43.7,23.0,44,30.24,10.0,West,12.7,18.4,N/A,,Scattered Clouds,260,2013-12-26 18:55:00
2:15 PM,43.9,21.6,41,30.24,10.0,West,10.4,16.1,N/A,,Clear,260,2013-12-26 19:15:00
2:35 PM,44.2,21.0,40,30.24,10.0,West,12.7,24.2,N/A,,Clear,260,2013-12-26 19:35:00
2:55 PM,44.6,20.1,38,30.24,10.0,SW,9.2,16.1,N/A,,Clear,220,2013-12-26 19:55:00
3:15 PM,45.1,20.1,37,30.25,10.0,Calm,Calm,-,N/A,,Clear,0,2013-12-26 20:15:00
3:35 PM,45.5,18.9,35,30.25,10.0,WSW,6.9,-,N/A,,Clear,250,2013-12-26 20:35:00
3:55 PM,45.5,19.2,35,30.25,10.0,Calm,Calm,-,N/A,,Clear,0,2013-12-26 20:55:00
4:15 PM,45.1,18.7,35,30.26,10.0,West,10.4,-,N/A,,Clear,270,2013-12-26 21:15:00
4:35 PM,43.9,18.5,36,30.26,10.0,West,5.8,16.1,N/A,,Clear,270,2013-12-26 21:35:00
4:55 PM,43.0,18.1,37,30.26,10.0,Calm,Calm,-,N/A,,Clear,0,2013-12-26 21:55:00
5:15 PM,41.7,18.5,39,30.26,10.0,Calm,Calm,-,N/A,,Clear,0,2013-12-26 22:15:00
5:35 PM,39.2,19.8,46,30.27,10.0,Calm,Calm,-,N/A,,Clear,0,2013-12-26 22:35:00
5:55 PM,40.1,19.9,44,30.27,10.0,Calm,Calm,-,N/A,,Clear,0,2013-12-26 22:55:00
6:15 PM,39.2,19.6,45,30.28,10.0,Calm,Calm,-,N/A,,Clear,0,2013-12-26 23:15:00
6:35 PM,40.1,18.7,42,30.28,10.0,Calm,Calm,-,N/A,,Clear,0,2013-12-26 23:35:00
6:55 PM,38.5,19.6,47,30.29,10.0,West,10.4,-,N/A,,Clear,280,2013-12-26 23:55:00
7:15 PM,41.4,17.4,38,30.29,10.0,Calm,Calm,-,N/A,,Clear,0,2013-12-27 00:15:00
7:35 PM,41.4,17.2,38,30.30,10.0,Calm,Calm,-,N/A,,Clear,0,2013-12-27 00:35:00
7:55 PM,40.5,18.1,41,30.31,10.0,Calm,Calm,-,N/A,,Clear,0,2013-12-27 00:55:00
8:15 PM,40.3,18.0,41,30.32,10.0,Calm,Calm,-,N/A,,Clear,0,2013-12-27 01:15:00
8:35 PM,40.1,18.5,42,30.32,10.0,Calm,Calm,-,N/A,,Clear,0,2013-12-27 01:35:00
8:55 PM,40.1,18.3,42,30.32,10.0,Calm,Calm,-,N/A,,Clear,0,2013-12-27 01:55:00
9:15 PM,40.1,18.7,42,30.33,10.0,Calm,Calm,-,N/A,,Clear,0,2013-12-27 02:15:00
9:35 PM,40.1,18.7,42,30.34,10.0,Calm,Calm,-,N/A,,Clear,0,2013-12-27 02:35:00
9:55 PM,39.4,18.7,43,30.34,10.0,Calm,Calm,-,N/A,,Clear,0,2013-12-27 02:55:00
10:15 PM,39.6,19.2,44,30.34,10.0,NW,5.8,17.3,N/A,,Clear,310,2013-12-27 03:15:00
10:35 PM,37.8,19.8,48,30.34,10.0,Calm,Calm,-,N/A,,Clear,0,2013-12-27 03:35:00
10:55 PM,37.6,19.6,48,30.35,10.0,Calm,Calm,-,N/A,,Clear,0,2013-12-27 03:55:00
11:15 PM,35.6,20.7,55,30.35,10.0,Calm,Calm,-,N/A,,Clear,0,2013-12-27 04:15:00
11:35 PM,35.2,21.2,57,30.35,10.0,Calm,Calm,-,N/A,,Clear,0,2013-12-27 04:35:00
11:55 PM,34.3,21.0,58,30.35,10.0,Calm,Calm,-,N/A,,Clear,0,2013-12-27 04:55:00